Albert Lea, MN

4:58 AM CDT on August 18, 2017 (GMT -0500)
Albert Lea Municipal

Weather History for KAEL - January, 2013

Change the Weather History Date:

Friday, January 4, 2013

  Actual Average Record
Temperature  
Mean Temperature 20 °F -  
Max Temperature 28 °F 24 °F 42 °F (2007)
Min Temperature 10 °F 10 °F -14 °F (1999)
Degree Days  
Heating Degree Days 45    
Moisture  
Dew Point 16 °F    
Average Humidity 83    
Maximum Humidity 100    
Minimum Humidity 64    
Precipitation  
Precipitation 0.00 in - - ()
Sea Level Pressure  
Sea Level Pressure 30.09 in    
Wind  
Wind Speed 8 mph (WSW)    
Max Wind Speed 13 mph    
Max Gust Speed 21 mph    
Visibility 10 miles    
Events      
Averages and records for this station are not official NWS values.
T = Trace of Precipitation, MM = Missing Value Source: NWS Daily Summary

Daily Weather History Graph

Daily Weather History Graph

Search for Another Location

Airport or City:

Trip Planner

Search our weather history database for the weather conditions in past years. The results will help you decide how hot, cold, wet, or windy it might be!

Date:

Astronomy

Jan. 04, 2013 Rise Set
Actual Time 7:47 AM CST 4:50 PM CST
Civil Twilight 7:14 AM CST 5:22 PM CST
Nautical Twilight 6:38 AM CST 5:58 PM CST
Astronomical Twilight 6:03 AM CST 6:33 PM CST
Moon No Moon Rise 11:15 AM CST (1/4)
Length of Visible Light 10h 08m
Length of Day
9h 03m
Waning Gibbous, 55% of the Moon is Illuminated
Jan 4
Waning Gibbous
Jan 4
Last Quarter
Jan 11
New
Jan 18
First Quarter
Jan 26
Full

Hourly Weather History & Observations

Time (CST) Temp. Windchill Dew Point Humidity Pressure Visibility Wind Dir Wind Speed Gust Speed Precip Events Conditions
12:12 AM 17.6 °F 5.7 °F 14.0 °F 86% 30.14 in 10.0 mi SW 10.4 mph - N/A   Clear
12:32 AM 15.8 °F 4.2 °F 14.0 °F 93% 30.13 in 10.0 mi SW 9.2 mph - N/A   Clear
12:52 AM 15.8 °F 5.1 °F 12.2 °F 86% 30.12 in 10.0 mi SW 8.1 mph - N/A   Clear
1:12 AM 15.8 °F 5.1 °F 12.2 °F 86% 30.11 in 10.0 mi SW 8.1 mph - N/A   Clear
1:32 AM 14.0 °F 2.9 °F 12.2 °F 93% 30.12 in 10.0 mi SW 8.1 mph - N/A   Clear
1:52 AM 14.0 °F 3.9 °F 12.2 °F 93% 30.11 in 10.0 mi SW 6.9 mph - N/A   Clear
2:32 AM 17.6 °F 8.2 °F 14.0 °F 86% 30.10 in 10.0 mi SW 6.9 mph - N/A   Clear
2:52 AM 17.6 °F 5.7 °F 14.0 °F 86% 30.09 in 10.0 mi SW 10.4 mph - N/A   Clear
3:12 AM 17.6 °F 5.7 °F 15.8 °F 93% 30.08 in 10.0 mi SW 10.4 mph 17.3 mph N/A   Clear
3:32 AM 19.4 °F - 15.8 °F 86% 30.07 in 10.0 mi North - - N/A   Clear
3:52 AM 17.6 °F 5.7 °F 15.8 °F 93% 30.07 in 10.0 mi SW 10.4 mph - N/A   Clear
4:12 AM 19.4 °F 7.2 °F 15.8 °F 86% 30.07 in 10.0 mi WSW 11.5 mph 16.1 mph N/A   Clear
4:32 AM 19.4 °F 7.2 °F 15.8 °F 86% 30.07 in 10.0 mi WSW 11.5 mph 20.7 mph N/A   Clear
4:52 AM 21.2 °F 10.1 °F 15.8 °F 80% 30.07 in 10.0 mi WSW 10.4 mph 19.6 mph N/A   Clear
5:12 AM 19.4 °F 6.6 °F 15.8 °F 86% 30.07 in 10.0 mi West 12.7 mph 18.4 mph N/A   Clear
5:32 AM 19.4 °F 7.2 °F 15.8 °F 86% 30.07 in 10.0 mi WSW 11.5 mph 17.3 mph N/A   Clear
5:52 AM 19.4 °F 6.6 °F 15.8 °F 86% 30.06 in 10.0 mi SW 12.7 mph 18.4 mph N/A   Clear
6:12 AM 19.4 °F 6.6 °F 15.8 °F 86% 30.05 in 10.0 mi SW 12.7 mph 20.7 mph N/A   Clear
6:32 AM 19.4 °F 6.6 °F 15.8 °F 86% 30.05 in 10.0 mi SW 12.7 mph 17.3 mph N/A   Clear
6:52 AM 17.6 °F 7.3 °F 14.0 °F 86% 30.05 in 10.0 mi SW 8.1 mph - N/A   Clear
7:12 AM 19.4 °F 9.5 °F 15.8 °F 86% 30.05 in 10.0 mi SW 8.1 mph - N/A   Clear
7:32 AM 17.6 °F 8.2 °F 14.0 °F 86% 30.05 in 10.0 mi SW 6.9 mph - N/A   Clear
7:53 AM 19.4 °F 9.5 °F 15.8 °F 86% 30.06 in 10.0 mi WSW 8.1 mph - N/A   Clear
8:12 AM 19.4 °F 9.5 °F 15.8 °F 86% 30.07 in 10.0 mi WSW 8.1 mph - N/A   Clear
8:32 AM 19.4 °F 8.6 °F 14.0 °F 80% 30.07 in 10.0 mi WSW 9.2 mph - N/A   Clear
8:52 AM 21.2 °F 11.7 °F 15.8 °F 80% 30.08 in 10.0 mi WSW 8.1 mph - N/A   Clear
9:12 AM 21.2 °F 10.9 °F 15.8 °F 80% 30.08 in 10.0 mi WSW 9.2 mph - N/A   Clear
9:32 AM 21.2 °F 10.1 °F 15.8 °F 80% 30.09 in 10.0 mi West 10.4 mph - N/A   Clear
9:52 AM 23.0 °F 14.7 °F 15.8 °F 74% 30.09 in 10.0 mi West 6.9 mph - N/A   Clear
10:12 AM 23.0 °F 13.9 °F 15.8 °F 74% 30.11 in 10.0 mi West 8.1 mph - N/A   Clear
10:32 AM 24.8 °F 14.6 °F 15.8 °F 69% 30.11 in 10.0 mi West 10.4 mph - N/A   Clear
10:52 AM 24.8 °F 16.1 °F 15.8 °F 69% 30.11 in 10.0 mi West 8.1 mph - N/A   Clear
11:12 AM 26.6 °F 18.2 °F 15.8 °F 64% 30.10 in 10.0 mi WSW 8.1 mph - N/A   Clear
11:32 AM 24.8 °F 14.6 °F 15.8 °F 69% 30.10 in 10.0 mi WSW 10.4 mph 16.1 mph N/A   Clear
11:52 AM 24.8 °F 15.3 °F 15.8 °F 69% 30.09 in 10.0 mi WSW 9.2 mph 16.1 mph N/A   Clear
12:12 PM 26.6 °F 16.8 °F 17.6 °F 69% 30.09 in 10.0 mi West 10.4 mph - N/A   Clear
12:32 PM 26.6 °F 19.1 °F 17.6 °F 69% 30.09 in 10.0 mi WSW 6.9 mph - N/A   Clear
12:52 PM 26.6 °F 18.2 °F 17.6 °F 69% 30.09 in 10.0 mi West 8.1 mph - N/A   Clear
1:12 PM 26.6 °F 19.1 °F 17.6 °F 69% 30.09 in 10.0 mi West 6.9 mph - N/A   Clear
1:32 PM 28.4 °F 21.2 °F 17.6 °F 64% 30.08 in 10.0 mi West 6.9 mph - N/A   Clear
1:52 PM 28.4 °F 20.4 °F 17.6 °F 64% 30.09 in 10.0 mi West 8.1 mph - N/A   Clear
2:12 PM 28.4 °F 20.4 °F 17.6 °F 64% 30.08 in 10.0 mi West 8.1 mph - N/A   Clear
2:32 PM 28.4 °F 21.2 °F 19.4 °F 69% 30.09 in 10.0 mi WSW 6.9 mph - N/A   Clear
2:52 PM 28.4 °F 23.3 °F 19.4 °F 69% 30.09 in 10.0 mi West 4.6 mph - N/A   Clear
3:12 PM 28.4 °F 22.2 °F 19.4 °F 69% 30.10 in 10.0 mi West 5.8 mph - N/A   Clear
3:32 PM 26.6 °F 21.2 °F 19.4 °F 74% 30.10 in 10.0 mi West 4.6 mph - N/A   Clear
3:52 PM 26.6 °F 19.1 °F 19.4 °F 74% 30.11 in 10.0 mi WSW 6.9 mph - N/A   Clear
4:12 PM 26.6 °F 19.1 °F 19.4 °F 74% 30.11 in 10.0 mi SW 6.9 mph - N/A   Clear
4:32 PM 26.6 °F 22.6 °F 19.4 °F 74% 30.11 in 10.0 mi WSW 3.5 mph - N/A   Clear
4:52 PM 24.8 °F 20.5 °F 19.4 °F 80% 30.10 in 10.0 mi WSW 3.5 mph - N/A   Clear
5:32 PM 21.2 °F - 17.6 °F 86% 30.10 in 10.0 mi Calm Calm - N/A   Clear
5:52 PM 21.2 °F - 17.6 °F 86% 30.11 in 10.0 mi Calm Calm - N/A   Clear
6:12 PM 19.4 °F 12.8 °F 17.6 °F 93% 30.12 in 10.0 mi SSW 4.6 mph - N/A   Clear
6:32 PM 19.4 °F 14.3 °F 17.6 °F 93% 30.12 in 10.0 mi SW 3.5 mph - N/A   Clear
6:52 PM 19.4 °F 14.3 °F 17.6 °F 93% 30.12 in 10.0 mi SW 3.5 mph - N/A   Clear
7:12 PM 19.4 °F 11.5 °F 17.6 °F 93% 30.13 in 10.0 mi SW 5.8 mph - N/A   Clear
7:32 PM 19.4 °F 10.4 °F 17.6 °F 93% 30.12 in 10.0 mi SW 6.9 mph - N/A   Clear
8:12 PM 19.4 °F 12.8 °F 17.6 °F 93% 30.12 in 10.0 mi SW 4.6 mph - N/A   Clear
8:32 PM 19.4 °F 12.8 °F 17.6 °F 93% 30.12 in 10.0 mi SW 4.6 mph - N/A   Clear
8:52 PM 19.4 °F - 17.6 °F 93% 30.11 in 10.0 mi Calm Calm - N/A   Clear
9:12 PM 19.4 °F - 17.6 °F 93% 30.10 in 10.0 mi Calm Calm - N/A   Clear
9:32 PM 19.4 °F - 17.6 °F 93% 30.09 in 10.0 mi Calm Calm - N/A   Clear
9:52 PM 15.8 °F - 15.8 °F 100% 30.09 in 10.0 mi Calm Calm - N/A   Clear
10:12 PM 15.8 °F - 14.0 °F 93% 30.09 in 7.0 mi Calm Calm - N/A   Clear
10:32 PM 15.8 °F - 14.0 °F 93% 30.09 in 7.0 mi Calm Calm - N/A   Clear
10:52 PM 15.8 °F 10.2 °F 14.0 °F 93% 30.09 in 7.0 mi South 3.5 mph - N/A   Clear
11:12 PM 14.0 °F - 12.2 °F 93% 30.09 in 7.0 mi Calm Calm - N/A   Clear
11:32 PM 12.2 °F 6.1 °F 12.2 °F 100% 30.09 in 5.0 mi South 3.5 mph - N/A   Clear
11:52 PM 10.4 °F 2.2 °F 8.6 °F 92% 30.09 in 7.0 mi South 4.6 mph - N/A   Clear